Location: Casilda
(33.0440°S, 61.1680°W)
Time: 15:57:51
(UTC-03:00)

ISS - Pass Details

Date: 12 April 2021
Orbit: 418 x 422 km, 51.6° (Epoch: 17 April)

Event Time Altitude Azimuth Distance (km) Brightness Sun altitude
Exits shadow 06:33:28 16° 245° (WSW) 1,185 -2.0 -11.5°
Maximum altitude 06:35:51 44° 312° (NW) 601 -3.3 -11.0°
Drops below altitude 10° 06:39:05 10° 25° (NNE) 1,505 -0.5 -10.3°
Sets 06:41:14 0° 31° (NNE) 2,362 0.6 -9.9°
